Location: Beaver Brook Trail
(44.0290°N, 71.8137°W)
Time: 00:56:21
(UTC+00:00)

Vanguard 1 Rocket - Pass Details

Date: 13 November 2024
Orbit: 650 x 4218 km, 34.3° (Epoch: 08 December)

Event Time Altitude Azimuth Distance (km) Brightness Sun altitude
Rises 22:28:53 0° 278° (W) 6,485 13.2 -12.1°
Reaches altitude 10° 22:34:52 10° 267° (W) 4,777 12.5 -13.1°
Maximum altitude 22:43:36 24° 221° (SW) 2,739 10.5 -14.7°
Drops below altitude 10° 22:49:15 10° 170° (S) 2,952 10.0 -15.7°
Sets 22:51:57 0° 155° (SSE) 3,591 10.3 -16.2°
